Simultaneous Nadir Overpasses (SNOs) Predictions

Prediction of SNOs between METOP-A and NOAA-19 Satellite Orbit:

Table of predicted SNOs for the next 14.0 days since TLE Epoch: 4/10/2015
Index Date (METOP-A) Time (METOP-A) Lat,Lon (METOP-A) SZA (METOP-A ) Date (NOAA-19) Time (NOAA-19) Lat,Lon (NOAA-19) SZA (NOAA-19 ) Distance(km) Time Diff (sec)
1 04/14/2015 17:21:49 -74.96, 96.53 114.58 04/14/2015 17:20:35 -74.95, 95.97 114.57 16.19 74
2 04/14/2015 18:12:31 74.84, -96.48 65.30 04/14/2015 18:11:29 74.82, -96.39 65.28 3.08 62
3 04/14/2015 19:03:13 -74.84, 70.86 114.72 04/14/2015 19:02:35 -74.82, 70.84 114.74 2.56 38
4 04/14/2015 19:53:53 74.81,-121.88 65.25 04/14/2015 19:53:32 74.83,-121.93 65.27 2.30 21
5 04/14/2015 20:44:36 -74.77, 45.32 114.81 04/14/2015 20:44:37 -74.78, 45.44 114.80 3.65 1
6
